GFSFLT1_250_rhum_216.txt.gz
RH
100 100 100 80 85 96 94 86 72 57 49 35 31 35 38 44 36 48 66 71 100 100 100 100 100 100 100 100 99 69 61 100
89 84 75 74 67 69 56 58 66 61 54 40 36 39 42 52 52 45 47 61 74 98 100 100 83 97 100 100 100 87 96 100
71 66 62 60 66 52 32 31 34 32 36 42 51 55 52 51 48 52 54 58 50 68 100 100 100 100 100 100 100 100 100 100
40 36 30 34 32 32 41 44 55 53 52 55 67 68 61 56 59 50 45 53 58 54 76 88 100 100 100 100 100 100 100 95
35 35 28 24 34 50 51 57 62 64 65 65 71 62 51 64 66 64 65 54 52 51 62 76 80 100 100 100 100 100 100 100
32 26 22 34 44 50 80 74 81 92 83 76 76 72 54 54 70 73 70 66 57 52 48 72 65 68 84 87 88 91 94 85
30 30 30 49 98 81 97 73 94 97 96 89 79 84 89 89 88 89 84 77 74 52 57 47 84 80 92 74 100 100 99 100
27 34 64 79 95 89 100 78 95 99 88 95 100 100 100 100 100 100 100 88 77 61 63 76 63 73 63 93 100 100 100 100
44 41 66 99 69 86 94 98 100 100 100 100 100 100 100 100 100 100 100 100 100 83 68 55 75 50 46 73 100 100 99 100
40 92 100 84 72 72 80 99 100 100 100 100 100 100 100 100 100 100 100 100 100 98 76 75 47 35 49 59 87 90 96 100
100 77 67 68 99 100 99 98 100 100 100 100 100 100 100 100 98 97 97 97 100 100 94 47 43 28 28 44 69 81 89 100
98 74 83 100 100 98 92 90 100 100 100 100 98 82 62 46 48 47 49 49 47 51 56 52 34 24 22 28 48 69 70 95
83 100 100 91 90 96 100 100 100 98 97 89 64 44 35 29 27 23 24 23 22 19 19 24 27 19 14 19 30 49 62 80
100 94 96 93 100 100 100 99 93 84 58 42 33 25 18 11 11 8 7 6 6 6 6 6 7 9 9 12 19 33 53 60
89 93 96 94 95 100 98 76 50 33 26 21 12 7 5 4 4 4 4 4 4 4 4 4 4 5 5 7 10 16 39 42
86 83 100 98 96 74 44 29 20 13 8 6 5 5 5 4 4 4 4 4 4 4 4 5 5 4 5 6 6 8 18 31
100 100 97 88 47 34 21 12 6 5 4 4 4 4 4 4 4 4 4 4 4 4 4 5 5 5 6 7 7 8 12 16
85 80 57 36 30 15 7 5 5 5 4 4 4 4 4 4 4 4 4 4 4 4 4 5 5 7 8 8 10 9 8 10
63 45 38 27 11 6 5 5 5 4 3 3 4 4 4 4 3 4 4 4 4 4 5 5 5 8 10 10 11 16 19 11

GFSFLT1_250_rhum_219.txt.gz
RH
71 95 100 100 100 100 92 81 74 63 59 33 36 42 50 39 38 45 52 54 66 55 53 65 90 100 98 97 88 99 100 100
100 92 84 84 76 66 68 60 41 31 35 43 58 48 59 58 49 48 62 62 62 62 48 79 96 99 100 100 80 75 88 100
100 100 100 78 62 55 46 40 35 31 32 57 74 59 55 43 42 46 55 56 50 53 40 56 56 56 86 100 100 100 100 95
71 71 60 58 47 43 45 36 32 39 57 58 70 74 77 78 72 73 82 86 65 49 54 45 44 40 71 96 100 100 100 95
81 77 69 67 62 56 48 39 39 46 53 74 94 72 62 54 76 81 82 100 61 50 43 41 35 30 26 60 95 100 100 89
72 52 36 38 34 41 41 45 41 48 62 74 98 73 72 99 76 77 100 100 100 60 82 62 47 41 29 30 50 93 100 100
30 28 27 26 41 55 51 42 45 63 98 100 100 100 96 99 100 94 98 100 97 88 78 91 82 79 62 32 34 43 91 100
33 37 30 38 54 49 45 55 60 77 100 100 97 95 100 100 97 100 100 100 89 99 97 88 82 92 87 77 50 43 43 90
32 37 33 57 84 60 65 71 80 96 86 86 100 100 100 100 100 100 100 100 99 97 100 100 90 95 87 86 73 46 30 48
38 35 48 66 69 88 100 100 100 100 100 100 100 100 99 96 100 100 95 89 75 91 100 100 100 99 92 88 80 59 43 39
34 68 69 95 100 100 100 100 100 100 100 97 85 97 99 99 96 100 100 100 85 83 88 93 82 100 100 98 67 46 36 28
81 94 100 100 100 100 100 100 100 100 89 84 86 97 93 100 100 77 50 48 44 45 56 66 65 57 67 80 79 63 38 27
87 100 95 82 100 98 98 99 74 70 75 82 92 97 74 58 46 35 28 31 28 25 23 28 31 37 27 33 44 46 51 21
75 77 95 100 95 94 97 68 67 80 78 74 47 36 33 31 29 28 15 8 7 7 6 6 7 9 11 10 10 12 17 25
83 100 95 95 100 99 75 61 71 58 38 32 30 28 21 10 6 5 5 4 4 4 4 4 4 4 5 4 5 6 8 10
100 92 96 100 89 68 52 46 32 31 32 26 19 10 6 5 4 4 4 4 4 4 4 4 4 4 4 4 5 5 5 6
90 88 96 95 48 39 32 33 35 28 26 14 7 5 4 4 4 4 3 3 3 3 4 4 4 4 4 5 5 5 5 6
80 95 98 48 40 36 33 36 34 21 8 6 5 4 4 3 3 2 2 2 3 3 4 4 4 4 4 5 5 5 6 7
83 100 70 38 40 36 31 31 12 7 6 5 4 3 3 2 2 2 2 3 3 3 4 4 4 4 5 6 6 6 7 9

GFSFLT1_250_rhum_222.txt.gz
RH
100 100 95 87 93 97 100 99 99 78 67 60 59 50 52 52 57 74 69 58 60 56 42 38 46 54 66 77 63 92 99 100
100 98 99 94 100 100 100 97 76 79 76 74 73 68 70 68 70 66 66 62 66 51 74 42 44 44 39 46 59 68 91 100
100 100 97 100 90 83 76 87 56 38 40 48 54 59 62 56 58 63 64 61 52 48 46 60 60 60 62 53 57 49 73 90
100 100 100 93 95 85 52 34 35 47 39 36 38 45 54 53 53 45 82 89 56 56 75 74 75 82 89 73 53 46 55 82
93 74 64 51 37 35 35 38 46 47 36 39 75 71 65 56 55 63 80 97 100 100 91 99 100 100 100 100 65 51 39 46
79 72 56 48 37 35 40 40 39 32 43 66 71 85 93 88 76 69 72 73 94 100 100 77 89 75 76 60 76 99 46 40
88 67 73 68 47 42 47 43 32 40 61 95 98 100 100 91 100 100 99 90 87 93 100 100 100 100 100 66 87 89 61 43
87 99 90 52 38 36 37 32 35 58 93 100 100 100 100 100 100 100 100 100 100 100 100 100 100 100 100 100 79 77 80 50
100 99 69 54 60 52 39 32 37 69 84 82 96 100 100 100 100 100 100 100 100 100 100 100 100 82 90 83 77 59 58 60
100 98 66 56 40 30 30 38 56 74 97 100 100 100 89 78 59 55 58 63 66 76 83 72 60 72 78 85 90 88 65 58
48 42 41 35 29 30 38 53 83 99 100 100 99 91 90 49 40 35 35 36 41 47 52 69 51 36 38 36 48 58 56 51
36 36 27 30 39 45 46 68 91 98 99 93 87 77 47 36 29 30 34 37 44 51 65 41 30 40 58 56 47 52 47 46
65 41 64 58 50 54 66 92 100 85 84 67 81 40 30 32 32 33 38 45 52 60 58 40 29 12 15 20 18 18 22 29
53 56 46 68 76 65 99 86 84 90 73 77 59 27 27 31 34 34 32 26 16 15 12 10 10 7 5 4 5 6 7 10
54 73 77 56 59 94 82 84 92 69 75 60 44 31 36 34 33 14 5 5 4 4 5 6 5 5 5 5 4 5 5 5
53 56 46 59 88 85 94 88 68 70 64 72 41 38 38 24 8 5 4 4 4 4 3 4 3 3 4 5 4 4 5 5
57 46 70 81 83 95 86 72 60 61 71 70 37 40 17 7 6 5 4 3 3 3 3 3 3 3 3 3 3 4 5 5
73 72 82 98 99 89 67 61 60 69 83 40 34 14 6 6 5 5 3 3 3 3 3 2 2 3 4 3 3 3 5 5
70 100 90 100 91 78 69 60 72 88 48 30 15 7 6 5 5 4 3 3 3 3 2 2 3 3 3 3 3 4 5 6

GFSFLT1_250_rhum_228.txt.gz
RH
94 100 100 100 55 24 24 59 81 100 80 63 44 42 46 44 51 52 52 56 59 69 64 57 58 53 55 73 63 67 91 94
56 98 100 95 56 55 78 100 100 90 80 56 56 71 72 51 52 66 66 64 61 58 59 58 47 52 73 52 50 82 72 80
100 79 58 64 88 100 100 100 100 94 73 74 92 93 83 90 92 84 76 68 61 58 57 46 52 50 82 85 79 75 62 56
100 90 84 97 100 100 100 100 100 86 91 100 100 99 100 85 81 80 91 77 72 63 59 58 55 65 91 87 94 81 80 88
66 86 82 100 100 100 100 100 80 94 100 100 100 91 77 75 77 77 89 70 66 63 64 62 73 98 87 100 80 91 99 72
50 44 62 99 100 100 100 82 70 99 100 84 74 79 72 71 69 66 65 59 58 65 68 92 100 100 100 100 100 100 98 62
73 64 76 100 100 97 56 49 61 61 66 76 90 84 87 78 70 60 63 58 66 74 100 100 100 100 99 96 90 100 84 53
74 64 95 100 78 62 60 72 78 93 99 100 93 72 68 56 52 53 52 53 88 100 100 95 98 92 100 92 97 86 70 52
90 99 100 93 88 99 100 100 90 81 68 57 51 40 42 40 44 62 88 95 92 100 85 81 99 100 90 94 89 91 65 59
94 100 100 98 100 100 95 61 37 36 33 34 33 39 43 81 100 100 87 82 99 69 94 100 100 100 99 81 72 53 46 50
100 90 62 63 40 28 25 25 24 34 33 39 49 70 100 99 84 81 81 99 86 99 100 99 96 94 71 32 24 20 21 20
95 62 26 22 22 23 37 28 35 41 36 45 48 97 87 84 67 76 80 85 73 82 90 100 73 60 27 16 12 9 8 8
20 21 49 50 50 62 38 59 50 48 51 75 96 100 100 79 57 68 79 60 80 99 99 72 52 29 14 7 5 6 6 6
71 97 98 75 52 45 60 65 80 74 75 92 99 100 100 96 70 69 77 81 90 99 76 49 45 12 5 4 4 4 4 5
98 98 100 66 69 52 82 91 81 70 88 99 94 83 67 64 70 89 84 94 100 87 68 38 18 6 6 5 4 4 4 4
100 100 92 68 53 55 100 67 80 85 96 91 78 65 68 68 83 87 96 100 95 63 36 23 8 6 5 4 4 3 3 3
100 100 60 74 72 100 79 93 88 98 84 75 81 79 75 77 99 92 100 91 85 44 29 11 5 4 4 3 3 3 3 3
100 84 49 88 100 76 68 87 82 92 85 65 68 80 86 97 99 100 71 87 52 38 17 5 4 4 4 3 3 3 4 3
86 60 84 92 70 67 68 78 88 77 84 64 78 86 93 100 100 94 80 72 36 30 6 4 4 4 3 3 3 4 4 3

GFSFLT1_250_rhum_234.txt.gz
RH
77 44 30 25 42 67 59 88 93 97 100 92 48 38 100 100 96 100 100 100 100 100 100 99 100 86 56 50 56 60 56 67
41 27 19 21 33 59 61 79 91 100 70 56 72 100 100 82 68 57 65 69 70 78 96 85 56 49 54 60 68 58 68 83
46 33 20 21 40 62 69 72 62 69 61 100 100 92 92 44 36 36 47 61 63 66 52 47 47 54 61 62 60 52 62 80
59 30 22 26 54 67 57 48 43 57 62 46 31 26 28 53 34 44 57 45 40 37 46 48 47 46 55 60 70 93 79 92
50 26 24 29 32 48 60 56 55 38 28 28 28 65 67 47 55 57 36 38 42 46 43 42 46 76 79 81 59 79 100 96
44 30 28 25 29 35 47 59 60 42 31 32 57 97 82 72 58 44 35 41 38 36 47 55 68 73 83 71 89 97 100 100
45 36 29 21 23 33 34 45 45 54 53 91 86 50 38 42 44 32 35 37 40 41 49 73 80 96 85 72 75 100 97 100
51 37 23 20 19 27 66 79 73 53 77 94 58 25 26 30 29 51 63 54 46 48 57 72 64 83 71 76 93 99 94 100
50 28 20 19 20 26 44 57 80 99 80 44 31 30 28 34 61 83 70 61 45 53 65 63 79 78 89 100 100 100 100 95
46 25 31 19 16 16 19 32 29 21 21 21 23 28 29 46 76 86 76 53 62 65 68 64 69 90 89 100 100 100 100 100
57 39 43 47 23 18 18 19 24 27 27 21 23 46 69 85 99 98 68 70 59 52 58 61 83 100 100 100 100 100 98 88
67 75 75 40 27 25 20 20 22 28 26 24 45 88 100 100 100 100 71 58 44 64 61 89 100 100 100 100 100 86 96 73
87 57 64 44 41 29 21 22 25 30 31 33 89 100 100 100 100 96 54 43 84 92 80 100 92 100 100 100 91 100 86 55
72 66 40 34 34 25 28 46 55 47 41 65 100 100 100 100 92 65 42 55 79 76 99 74 98 100 88 97 99 90 80 36
75 51 42 49 43 34 54 56 61 71 89 100 100 100 100 100 58 41 45 67 75 88 87 97 100 85 97 95 94 86 44 20
65 48 49 71 43 51 65 84 77 95 98 100 100 100 86 56 42 41 52 72 76 85 99 96 96 94 89 99 82 35 20 12
71 79 99 52 69 60 88 94 99 100 100 99 94 67 42 50 52 58 89 98 94 77 89 99 100 100 84 86 70 23 10 8
79 64 77 77 100 100 100 100 100 100 99 78 59 39 54 54 76 99 91 83 91 99 100 99 95 92 90 79 50 15 9 8
74 75 94 100 100 100 100 100 100 98 94 62 40 46 66 90 90 63 95 55 100 80 100 85 81 75 65 52 23 11 9 8

GFSFLT1_250_rhum_237.txt.gz
RH
77 75 76 43 24 21 24 45 79 67 77 90 100 95 62 89 100 90 63 37 30 35 57 48 46 44 45 47 48 44 57 68
58 53 91 50 28 25 28 19 31 46 68 75 69 65 56 53 54 80 44 39 34 45 33 34 39 44 38 40 40 44 58 64
33 44 56 75 28 28 37 23 30 48 66 54 59 72 63 48 30 30 45 52 48 52 37 41 41 39 42 42 50 62 54 49
35 56 69 77 31 24 24 23 23 48 67 79 70 61 38 32 29 64 87 84 59 52 39 38 43 57 54 45 34 45 56 65
43 56 42 78 39 31 25 24 30 42 56 69 76 56 42 38 71 97 47 40 33 35 35 38 70 71 56 55 58 76 71 68
65 76 92 98 48 35 26 22 21 28 34 53 50 39 33 38 84 36 26 30 35 34 38 50 89 82 61 65 63 73 69 75
64 75 100 81 55 36 24 21 17 17 20 22 28 48 73 96 52 36 31 38 31 36 51 80 85 82 70 65 79 62 67 83
74 78 93 66 61 39 37 26 26 22 18 18 21 33 21 23 23 24 24 29 30 42 83 94 97 100 84 62 56 56 87 76
68 100 96 75 62 45 35 34 50 24 18 18 18 20 25 26 23 24 24 30 61 99 100 96 99 89 47 51 56 87 85 66
83 100 100 84 67 52 34 75 44 31 26 20 18 19 25 28 25 22 37 54 88 100 72 80 90 53 39 42 76 72 84 91
56 100 100 97 86 77 65 75 52 38 26 20 26 27 29 41 50 24 43 94 100 100 96 100 94 49 39 48 77 68 97 97
28 68 64 90 94 92 89 70 46 35 29 24 23 35 47 58 82 45 68 85 90 99 88 77 62 47 58 86 74 100 100 100
29 50 71 100 100 95 82 48 44 42 30 33 29 49 78 100 79 85 100 96 88 89 68 80 60 53 94 86 82 78 100 100
27 63 100 96 98 99 79 54 46 46 38 43 44 82 100 99 100 100 100 98 82 69 56 59 62 70 66 71 75 100 100 100
37 32 66 90 94 86 80 61 62 56 66 83 99 100 100 100 100 100 94 88 68 48 48 79 86 54 65 90 99 100 100 95
26 36 83 99 83 92 89 75 75 90 97 100 100 100 100 100 100 100 95 66 50 37 54 95 63 55 95 94 100 100 100 97
35 82 100 100 100 100 100 100 90 90 80 100 100 96 100 100 90 100 66 50 42 39 58 100 70 72 96 100 100 96 100 99
42 30 41 100 100 100 100 100 89 99 100 100 99 100 98 97 91 69 60 58 45 33 99 100 88 70 100 100 100 100 100 68
48 48 60 100 100 100 100 69 67 100 100 99 73 76 87 90 57 60 58 57 43 60 94 79 73 88 100 100 100 100 77 42

GFSFLT1_250_rhum_240.txt.gz
RH
47 46 41 45 33 54 56 33 23 21 26 32 51 64 81 99 97 87 79 80 83 71 39 38 48 36 39 42 44 56 65 61
29 28 36 41 38 45 82 61 24 20 22 32 40 62 75 82 78 68 67 56 70 32 39 67 70 44 39 41 43 63 82 84
30 32 36 42 51 67 82 55 27 25 25 36 52 65 83 82 71 75 56 33 39 64 99 67 32 31 30 34 45 70 85 100
45 29 34 39 38 57 82 60 32 27 24 27 47 73 60 66 64 58 52 53 93 72 32 30 31 33 37 48 54 65 82 99
55 30 28 51 71 78 100 65 36 29 21 31 24 30 50 73 74 54 83 95 81 53 36 37 38 45 46 37 58 83 99 100
66 39 28 42 50 50 100 70 35 29 24 43 31 19 30 62 41 63 24 30 33 33 32 29 30 29 36 63 85 94 79 100
71 48 28 27 48 51 87 62 46 36 26 46 39 21 19 19 26 24 23 25 24 23 23 24 26 28 33 53 96 92 100 99
78 57 32 24 37 47 97 73 52 45 24 58 44 39 24 19 18 18 21 24 29 31 34 24 26 33 48 69 98 100 98 67
80 71 43 28 26 52 100 84 60 65 26 60 48 39 24 24 27 32 31 34 42 49 71 55 35 38 63 77 83 96 81 42
70 78 63 30 22 36 85 86 67 88 64 73 48 39 33 27 26 24 26 28 38 71 80 84 91 100 100 98 69 68 44 31
52 68 63 38 25 25 44 51 74 84 86 72 51 41 40 37 33 27 39 52 76 86 100 100 100 100 94 74 56 47 45 48
62 57 64 43 26 28 43 72 98 98 76 62 60 47 46 50 45 52 88 93 93 94 100 100 100 100 96 70 58 62 48 54
62 58 64 49 35 38 51 84 100 90 83 76 68 60 69 64 65 77 100 100 83 100 100 100 100 100 94 63 71 65 65 63
53 51 72 67 38 36 29 43 59 91 93 86 68 81 83 98 94 77 100 100 100 100 100 100 100 79 61 65 78 83 73 81
77 54 75 64 50 30 31 28 86 99 96 96 100 100 99 95 75 81 100 100 100 100 84 93 80 66 72 86 84 77 87 64
91 47 50 55 56 44 34 46 100 100 100 100 100 100 94 72 61 99 100 100 98 70 99 100 85 100 82 66 79 85 63 53
100 100 99 83 84 40 31 31 32 59 100 100 100 94 76 47 40 100 99 83 69 94 100 100 90 86 89 84 76 90 61 57
100 100 100 72 62 30 49 51 30 39 100 100 99 73 40 29 99 100 100 80 91 100 99 84 75 88 78 75 89 77 66 54
93 91 98 52 46 69 53 50 88 94 100 100 95 78 47 94 100 100 90 94 100 100 84 90 87 71 78 79 90 80 56 67

GFSFLT1_250_rhum_246.txt.gz
RH
65 42 43 39 27 51 60 54 49 38 28 44 56 50 31 31 42 45 35 30 43 54 52 66 79 72 79 61 86 93 58 45
85 48 67 66 31 45 67 64 48 49 36 35 46 60 52 34 49 38 22 22 22 36 52 57 67 58 80 100 80 68 61 38
95 73 70 98 71 36 59 75 66 49 51 40 46 90 73 56 40 42 23 21 20 32 51 63 55 77 63 36 30 27 29 29
100 99 91 67 89 50 55 90 85 48 53 63 43 41 76 57 44 44 36 29 27 25 38 48 43 31 24 26 30 28 27 28
83 85 93 66 67 62 56 94 99 62 53 62 61 46 58 61 54 44 44 35 24 23 21 20 18 20 24 23 24 29 38 43
100 98 64 75 94 78 97 76 100 60 71 51 69 71 70 74 61 48 44 43 28 26 24 24 27 28 30 26 28 38 49 58
100 96 85 62 69 100 100 97 90 72 54 46 76 69 49 72 71 65 52 47 44 30 31 30 31 44 38 42 45 55 81 90
100 100 85 51 49 98 100 100 93 61 58 50 77 70 64 47 71 71 73 50 56 49 39 41 42 55 56 53 54 64 69 81
100 100 100 92 70 72 100 100 76 51 62 56 79 84 71 47 66 51 67 82 58 59 60 49 52 57 58 51 48 36 29 49
100 91 89 86 55 61 89 76 61 53 64 63 83 95 78 70 45 37 63 84 74 62 61 57 50 49 60 79 46 31 38 59
100 100 84 74 66 73 79 74 58 68 80 64 94 92 81 90 53 41 39 39 77 90 75 72 56 51 97 89 72 52 41 28
91 100 94 46 59 59 76 82 78 82 70 60 94 83 69 84 87 66 45 34 37 70 66 60 54 97 100 99 82 50 31 38
92 100 100 95 66 53 70 86 100 100 64 57 97 92 84 71 97 89 54 38 38 54 88 81 100 100 100 100 74 56 34 92
74 66 80 86 56 66 73 75 89 83 52 72 98 99 89 87 90 100 80 65 71 62 73 78 67 99 100 78 69 49 37 79
63 62 66 59 49 46 60 74 61 63 82 100 100 100 100 100 100 100 100 79 46 37 36 45 55 89 87 100 63 34 75 98
100 100 100 100 64 62 81 76 100 100 100 100 100 100 100 100 100 100 100 98 59 46 43 53 56 99 100 89 33 56 100 67
88 91 85 75 76 71 96 90 97 100 100 100 100 100 100 100 100 100 100 100 87 80 64 63 59 100 100 56 91 99 84 100
100 100 100 100 91 55 67 100 100 100 100 100 100 100 100 100 100 100 100 100 100 100 100 65 98 91 66 88 100 100 100 100
94 100 100 100 90 66 62 52 82 100 100 100 95 100 100 100 100 100 100 100 100 100 99 72 66 67 100 100 100 100 93 100

GFSFLT1_250_rhum_249.txt.gz
RH
82 83 85 72 94 82 91 74 68 53 48 87 65 60 51 38 86 74 55 37 32 24 19 16 19 28 43 52 45 38 48 70
100 100 100 100 100 81 87 100 66 80 58 82 96 66 62 53 55 92 100 58 42 35 27 22 18 24 22 28 45 38 27 29
63 68 98 100 100 100 92 98 67 68 82 96 100 91 74 56 61 50 72 74 47 41 36 27 20 19 18 21 21 23 27 27
64 58 56 63 93 100 93 100 79 54 97 100 100 94 93 68 68 62 58 67 53 48 44 29 22 22 23 30 34 34 33 34
54 48 49 48 51 99 100 100 100 68 90 100 100 100 100 70 69 77 56 60 78 61 45 46 28 27 29 32 41 48 48 45
100 73 49 60 62 62 100 100 100 92 73 100 100 100 99 77 75 70 74 52 70 74 68 59 51 33 35 29 31 41 58 62
100 97 100 95 57 56 63 74 96 85 56 84 100 100 100 76 77 64 83 75 64 69 82 73 57 55 53 45 39 49 63 74
84 100 100 60 57 62 80 62 57 77 77 80 83 93 100 100 100 78 84 99 76 65 58 77 86 72 57 56 52 49 58 86
78 99 100 61 57 66 66 92 100 95 87 81 79 99 90 100 100 95 100 93 96 66 52 63 63 74 71 70 75 66 69 96
84 100 100 53 62 85 65 90 99 94 63 74 85 72 68 100 100 100 100 89 91 95 80 70 61 63 66 60 68 79 86 100
39 47 68 52 51 72 43 46 62 66 55 56 67 66 75 100 100 100 100 100 100 97 100 95 69 46 39 48 53 99 100 67
46 68 69 49 46 44 41 40 46 50 48 52 43 64 78 100 100 100 100 96 100 100 100 97 83 75 62 82 76 59 41 37
46 45 46 42 56 55 62 48 49 48 47 52 55 70 82 100 100 97 87 100 100 100 100 100 100 98 93 88 62 45 52 50
52 66 72 78 73 71 71 68 64 64 74 43 42 57 92 92 87 78 99 100 100 100 100 100 100 100 100 87 73 67 56 72
60 64 68 68 83 91 88 74 70 57 53 43 40 59 68 75 100 100 100 100 100 100 100 100 100 100 100 100 94 96 74 99
64 54 61 56 74 89 100 99 85 66 67 50 35 56 68 80 93 100 100 100 100 100 100 100 100 100 100 100 91 100 100 100
88 78 70 73 76 94 100 100 100 95 81 54 39 77 100 100 100 100 100 100 100 100 100 100 100 100 100 88 99 100 100 100
100 97 95 95 94 96 93 100 94 100 80 62 46 59 58 86 100 100 100 100 82 86 100 100 100 100 100 91 100 100 100 100
98 99 100 100 100 100 96 92 96 100 85 70 80 60 64 98 100 100 100 99 71 100 100 100 100 100 94 100 100 100 100 100